CQ0XBF-11 Weather Reports


time (UTC)temp
C
wind
direction
speed
KPH
gust
KPH
rain 1hr
cm
rain 24hr
cm
rain mn
cm
humidity
%
barometer
mb
20181023095655 20 105 12.9 16.1 0.00 0.00 0.00 46 1019.7
20181023095453 20 67 6.4 12.9 0.00 0.00 0.00 47 1019.7
20181023095252 20 116 4.8 12.9 0.00 0.00 0.00 48 1019.7
20181023095050 19 92 6.4 12.9 0.00 0.00 0.00 49 1019.7
20181023094848 19 81 3.2 14.5 0.00 0.00 0.00 49 1019.8
20181023094647 19 127 4.8 14.5 0.00 0.00 0.00 49 1019.8
20181023094445 18 123 8.0 14.5 0.00 0.00 0.00 50 1019.8
20181023094244 18 112 4.8 14.5 0.00 0.00 0.00 49 1019.7
20181023094042 18 29 8.0 14.5 0.00 0.00 0.00 50 1019.8
20181023093841 18 92 0.0 16.1 0.00 0.00 0.00 50 1019.7
20181023093639 18 115 6.4 16.1 0.00 0.00 0.00 50 1019.6
20181023093438 18 219 4.8 19.3 0.00 0.00 0.00 51 1019.6
20181023093236 18 119 4.8 19.3 0.00 0.00 0.00 50 1019.6
20181023093035 18 115 6.4 19.3 0.00 0.00 0.00 50 1019.5
20181023092833 18 47 9.7 12.9 0.00 0.00 0.00 50 1019.5
20181023092632 18 60 6.4 12.9 0.00 0.00 0.00 51 1019.5
20181023092430 18 127 1.6 19.3 0.00 0.00 0.00 51 1019.5
20181023092228 18 87 0.0 19.3 0.00 0.00 0.00 51 1019.5
20181023092027 18 98 4.8 19.3 0.00 0.00 0.00 51 1019.5
20181023091825 18 15 9.7 17.7 0.00 0.00 0.00 50 1019.5
20181023091623 18 73 11.3 17.7 0.00 0.00 0.00 50 1019.5
20181023091422 18 188 1.6 17.7 0.00 0.00 0.00 50 1019.4
20181023091220 18 153 3.2 17.7 0.00 0.00 0.00 51 1019.5
20181023091019 18 105 6.4 20.9 0.00 0.00 0.00 50 1019.4
20181023090817 18 143 3.2 20.9 0.00 0.00 0.00 51 1019.4
20181023090616 18 119 3.2 20.9 0.00 0.00 0.00 50 1019.3
20181023090414 18 91 8.0 19.3 0.00 0.00 0.00 50 1019.3
20181023090213 18 77 16.1 19.3 0.00 0.00 0.00 50 1019.3
20181023090011 18 116 9.7 12.9 0.00 0.00 0.00 49 1019.3
20181023085810 18 327 0.0 12.9 0.00 0.00 0.00 51 1019.3
20181023085608 18 216 1.6 12.9 0.00 0.00 0.00 51 1019.3
20181023085407 18 102 8.0 19.3 0.00 0.00 0.00 51 1019.3
20181023085205 18 132 4.8 19.3 0.00 0.00 0.00 51 1019.3
20181023085003 18 68 3.2 17.7 0.00 0.00 0.00 52 1019.3
20181023084802 18 316 3.2 17.7 0.00 0.00 0.00 51 1019.3
20181023084600 18 22 0.0 17.7 0.00 0.00 0.00 52 1019.4
20181023084359 18 74 9.7 14.5 0.00 0.00 0.00 52 1019.3
20181023084157 18 116 6.4 14.5 0.00 0.00 0.00 52 1019.3
20181023083955 18 85 6.4 11.3 0.00 0.00 0.00 52 1019.3
20181023083754 18 78 3.2 11.3 0.00 0.00 0.00 53 1019.3
20181023083552 18 85 6.4 11.3 0.00 0.00 0.00 53 1019.2
20181023083351 18 92 4.8 14.5 0.00 0.00 0.00 53 1019.3
20181023083150 18 92 4.8 14.5 0.00 0.00 0.00 54 1019.2
20181023082948 17 142 1.6 14.5 0.00 0.00 0.00 55 1019.2
20181023082746 17 85 3.2 14.5 0.00 0.00 0.00 54 1019.1
20181023082545 17 150 9.7 14.5 0.00 0.00 0.00 55 1019.1
20181023082343 17 140 6.4 20.9 0.00 0.00 0.00 55 1019.0
20181023082142 17 68 6.4 20.9 0.00 0.00 0.00 55 1018.9
20181023081940 17 77 20.9 14.5 0.00 0.00 0.00 55 1019.0
20181023081739 17 105 9.7 14.5 0.00 0.00 0.00 55 1018.9
20181023081537 17 97 6.4 14.5 0.00 0.00 0.00 56 1019.0
20181023081335 17 78 8.0 16.1 0.00 0.00 0.00 56 1018.9
20181023080932 17 102 4.8 17.7 0.00 0.00 0.00 58 1019.0
20181023080730 16 108 3.2 17.7 0.00 0.00 0.00 58 1018.9
20181023080529 16 112 12.9 17.7 0.00 0.00 0.00 59 1018.9
20181023080327 16 78 12.9 9.7 0.00 0.00 0.00 61 1019.0
20181023080126 16 268 0.0 9.7 0.00 0.00 0.00 62 1018.9
20181023075924 16 116 3.2 9.7 0.00 0.00 0.00 62 1018.9
20181023075723 16 281 4.8 9.7 0.00 0.00 0.00 62 1018.9
20181023075521 16 324 0.0 12.9 0.00 0.00 0.00 62 1018.8
20181023075320 16 59 4.8 12.9 0.00 0.00 0.00 62 1018.9
20181023075118 16 74 4.8 12.9 0.00 0.00 0.00 62 1018.8
20181023074917 16 66 6.4 4.8 0.00 0.00 0.00 62 1018.7
20181023074715 16 336 0.0 4.8 0.00 0.00 0.00 62 1018.7
20181023074514 16 63 0.0 11.3 0.00 0.00 0.00 62 1018.7
20181023074312 16 81 0.0 11.3 0.00 0.00 0.00 62 1018.7
20181023074110 16 312 0.0 11.3 0.00 0.00 0.00 62 1018.7
20181023073909 16 317 1.6 11.3 0.00 0.00 0.00 62 1018.6
20181023073707 16 129 1.6 11.3 0.00 0.00 0.00 61 1018.7
20181023073506 16 30 1.6 16.1 0.00 0.00 0.00 60 1018.6
20181023073304 16 5 3.2 16.1 0.00 0.00 0.00 60 1018.6
20181023073102 16 348 1.6 16.1 0.00 0.00 0.00 60 1018.5
20181023072901 16 288 3.2 14.5 0.00 0.00 0.00 59 1018.5
20181023072700 16 116 0.0 14.5 0.00 0.00 0.00 59 1018.5
20181023072458 16 77 0.0 12.9 0.00 0.00 0.00 59 1018.4
20181023072256 16 251 1.6 12.9 0.00 0.00 0.00 59 1018.3
20181023072055 16 70 3.2 12.9 0.00 0.00 0.00 59 1018.3
20181023071853 16 74 3.2 12.9 0.00 0.00 0.00 59 1018.2
20181023071652 16 78 3.2 12.9 0.00 0.00 0.00 59 1018.2
20181023071450 16 68 4.8 11.3 0.00 0.00 0.00 59 1018.2
20181023071249 16 71 9.7 11.3 0.00 0.00 0.00 60 1018.2
20181023071047 16 46 4.8 11.3 0.00 0.00 0.00 60 1018.2
20181023070846 16 67 8.0 12.9 0.00 0.00 0.00 60 1018.2
20181023070644 16 91 4.8 12.9 0.00 0.00 0.00 60 1018.1
20181023070442 16 78 1.6 9.7 0.00 0.00 0.00 60 1018.1
20181023070241 16 68 1.6 9.7 0.00 0.00 0.00 59 1018.1
20181023070039 16 32 0.0 9.7 0.00 0.00 0.00 59 1018.1
20181023065837 16 50 6.4 14.5 0.00 0.00 0.00 59 1018.1
20181023065636 16 14 3.2 14.5 0.00 0.00 0.00 59 1018.0
20181023065434 16 47 4.8 8.0 0.00 0.00 0.00 59 1018.0
20181023065233 16 292 0.0 8.0 0.00 0.00 0.00 59 1018.0
20181023065031 16 2 0.0 8.0 0.00 0.00 0.00 58 1018.0
20181023064830 16 60 4.8 12.9 0.00 0.00 0.00 58 1017.9
20181023064628 16 129 1.6 12.9 0.00 0.00 0.00 58 1017.9
20181023064427 16 127 3.2 12.9 0.00 0.00 0.00 58 1017.9
20181023064225 16 150 1.6 12.9 0.00 0.00 0.00 58 1017.9
20181023064024 16 120 4.8 12.9 0.00 0.00 0.00 59 1017.8
20181023063621 16 74 6.4 14.5 0.00 0.00 0.00 60 1017.8
20181023063419 16 45 4.8 4.8 0.00 0.00 0.00 60 1017.8
20181023063217 16 92 9.7 4.8 0.00 0.00 0.00 61 1017.8
20181023063016 16 78 3.2 14.5 0.00 0.00 0.00 61 1017.8
20181023062814 16 316 0.0 14.5 0.00 0.00 0.00 60 1017.8
20181023062613 16 50 1.6 14.5 0.00 0.00 0.00 60 1017.8
20181023062411 16 306 0.0 8.0 0.00 0.00 0.00 60 1017.8
20181023062209 16 60 1.6 8.0 0.00 0.00 0.00 60 1017.8
20181023062008 16 23 0.0 12.9 0.00 0.00 0.00 59 1017.8
20181023061806 16 288 0.0 12.9 0.00 0.00 0.00 58 1017.8
20181023061605 16 11 3.2 12.9 0.00 0.00 0.00 58 1017.7
20181023061403 16 182 4.8 14.5 0.00 0.00 0.00 57 1017.8
20181023061202 16 25 3.2 14.5 0.00 0.00 0.00 57 1017.8
20181023061000 16 74 4.8 11.3 0.00 0.00 0.00 57 1017.7
20181023060759 16 75 8.0 11.3 0.00 0.00 0.00 58 1017.7
20181023060557 16 57 6.4 11.3 0.00 0.00 0.00 57 1017.7
20181023060356 16 123 3.2 12.9 0.00 0.00 0.00 57 1017.7
20181023060154 16 77 6.4 12.9 0.00 0.00 0.00 57 1017.7
20181023055953 16 78 4.8 8.0 0.00 0.00 0.00 57 1017.6
20181023055751 16 102 0.0 8.0 0.00 0.00 0.00 58 1017.7
20181023055549 16 40 3.2 8.0 0.00 0.00 0.00 57 1017.7
20181023055347 16 9 1.6 4.8 0.00 0.00 0.00 58 1017.6
20181023055146 16 95 6.4 4.8 0.00 0.00 0.00 58 1017.7
20181023054944 16 90 3.2 8.0 0.00 0.00 0.00 58 1017.7
20181023054743 16 104 3.2 8.0 0.00 0.00 0.00 58 1017.6
20181023054541 16 177 0.0 8.0 0.00 0.00 0.00 57 1017.6
20181023054340 16 306 1.6 12.9 0.00 0.00 0.00 57 1017.6
20181023054138 16 80 0.0 12.9 0.00 0.00 0.00 56 1017.6
20181023053937 16 67 0.0 8.0 0.00 0.00 0.00 55 1017.5
20181023053735 16 116 3.2 8.0 0.00 0.00 0.00 55 1017.4
20181023053534 16 109 3.2 8.0 0.00 0.00 0.00 55 1017.5
20181023053332 17 64 0.0 9.7 0.00 0.00 0.00 55 1017.5
20181023053131 16 146 3.2 9.7 0.00 0.00 0.00 55 1017.4
20181023052929 16 61 1.6 16.1 0.00 0.00 0.00 54 1017.4
20181023052728 16 16 1.6 16.1 0.00 0.00 0.00 54 1017.4
20181023052526 16 133 4.8 16.1 0.00 0.00 0.00 54 1017.4
20181023052324 17 92 6.4 14.5 0.00 0.00 0.00 54 1017.3
20181023052123 17 80 4.8 14.5 0.00 0.00 0.00 54 1017.2
20181023051921 17 85 12.9 11.3 0.00 0.00 0.00 54 1017.2
20181023051719 16 87 9.7 11.3 0.00 0.00 0.00 54 1017.2
20181023051518 16 75 4.8 9.7 0.00 0.00 0.00 55 1017.2
20181023051317 16 16 4.8 9.7 0.00 0.00 0.00 55 1017.2
20181023051115 17 282 0.0 9.7 0.00 0.00 0.00 55 1017.2
20181023050913 16 33 1.6 12.9 0.00 0.00 0.00 55 1017.3
20181023050712 16 39 3.2 12.9 0.00 0.00 0.00 55 1017.2
20181023050510 16 88 1.6 12.9 0.00 0.00 0.00 55 1017.1
20181023050309 16 116 4.8 12.9 0.00 0.00 0.00 55 1017.2
20181023050107 16 75 8.0 12.9 0.00 0.00 0.00 55 1017.1
20181023045906 16 113 6.4 8.0 0.00 0.00 0.00 56 1017.1
20181023045704 16 71 3.2 8.0 0.00 0.00 0.00 58 1017.1
20181023045503 16 40 4.8 6.4 0.00 0.00 0.00 60 1017.1
20181023045301 16 80 1.6 6.4 0.00 0.00 0.00 61 1017.1
20181023045059 16 296 1.6 6.4 0.00 0.00 0.00 62 1017.1
20181023044858 16 52 0.0 6.4 0.00 0.00 0.00 63 1017.1
20181023044656 16 300 1.6 6.4 0.00 0.00 0.00 64 1017.1
20181023044454 16 340 1.6 4.8 0.00 0.00 0.00 63 1017.1
20181023044253 16 320 3.2 4.8 0.00 0.00 0.00 62 1017.1
20181023044051 16 324 3.2 4.8 0.00 0.00 0.00 59 1017.1
20181023043850 17 40 0.0 9.7 0.00 0.00 0.00 56 1017.1
20181023043648 17 116 0.0 9.7 0.00 0.00 0.00 56 1017.0
20181023043447 16 33 3.2 9.7 0.00 0.00 0.00 56 1017.0
20181023043245 17 119 1.6 9.7 0.00 0.00 0.00 56 1016.9
20181023043044 17 104 3.2 9.7 0.00 0.00 0.00 56 1016.8
20181023042842 17 54 1.6 12.9 0.00 0.00 0.00 57 1016.8
20181023042641 17 39 1.6 12.9 0.00 0.00 0.00 57 1016.8
20181023042439 17 326 3.2 8.0 0.00 0.00 0.00 57 1016.8
20181023042238 17 347 0.0 8.0 0.00 0.00 0.00 56 1016.8
20181023042036 17 324 3.2 8.0 0.00 0.00 0.00 56 1016.8
20181023041834 17 355 0.0 12.9 0.00 0.00 0.00 52 1016.8
20181023041633 17 4 0.0 12.9 0.00 0.00 0.00 51 1016.8
20181023041431 17 92 4.8 14.5 0.00 0.00 0.00 51 1016.7
20181023041229 17 35 6.4 14.5 0.00 0.00 0.00 50 1016.7
20181023041028 17 70 9.7 14.5 0.00 0.00 0.00 50 1016.7
20181023040826 17 118 6.4 12.9 0.00 0.00 0.00 51 1016.7
20181023040625 17 42 6.4 12.9 0.00 0.00 0.00 51 1016.6
20181023040423 17 50 8.0 12.9 0.00 0.00 0.00 51 1016.6
20181023040222 17 63 6.4 12.9 0.00 0.00 0.00 51 1016.5
20181023040020 17 50 3.2 12.9 0.00 0.00 0.00 51 1016.5
20181023035819 17 98 6.4 12.9 0.00 0.00 0.00 52 1016.6
20181023035617 17 104 9.7 12.9 0.00 0.00 0.00 52 1016.5
20181023035416 17 123 3.2 9.7 0.00 0.00 0.00 52 1016.6
20181023035214 17 82 3.2 9.7 0.00 0.00 0.00 52 1016.5
20181023035013 17 85 1.6 9.7 0.00 0.00 0.00 52 1016.5
20181023034811 17 53 1.6 9.7 0.00 0.00 0.00 52 1016.4
20181023034610 17 75 8.0 9.7 0.00 0.00 0.00 52 1016.4
20181023034407 17 45 1.6 11.3 0.00 0.00 0.00 51 1016.4
20181023034206 17 57 3.2 11.3 0.00 0.00 0.00 51 1016.4
20181023034004 17 75 3.2 16.1 0.00 0.00 0.00 51 1016.4
20181023033802 17 60 1.6 16.1 0.00 0.00 0.00 51 1016.4
20181023033600 17 111 8.0 16.1 0.00 0.00 0.00 51 1016.4
20181023033359 17 119 6.4 14.5 0.00 0.00 0.00 51 1016.4
20181023033157 17 164 8.0 14.5 0.00 0.00 0.00 51 1016.4
20181023032956 17 66 8.0 12.9 0.00 0.00 0.00 51 1016.4
20181023032754 17 80 6.4 12.9 0.00 0.00 0.00 52 1016.4
20181023032553 17 109 8.0 12.9 0.00 0.00 0.00 52 1016.5
20181023032351 17 91 6.4 12.9 0.00 0.00 0.00 52 1016.5
20181023032150 18 80 3.2 12.9 0.00 0.00 0.00 51 1016.5
20181023031948 17 77 6.4 12.9 0.00 0.00 0.00 51 1016.5
20181023031747 17 81 6.4 12.9 0.00 0.00 0.00 51 1016.5
20181023031545 17 94 3.2 12.9 0.00 0.00 0.00 51 1016.5
20181023031344 17 115 1.6 12.9 0.00 0.00 0.00 51 1016.5
20181023031142 18 61 6.4 12.9 0.00 0.00 0.00 51 1016.5
20181023030940 18 111 3.2 12.9 0.00 0.00 0.00 51 1016.5
20181023030739 17 137 3.2 12.9 0.00 0.00 0.00 51 1016.5
20181023030537 18 101 4.8 12.9 0.00 0.00 0.00 51 1016.4
20181023030335 17 120 8.0 14.5 0.00 0.00 0.00 51 1016.4
20181023030134 17 116 4.8 14.5 0.00 0.00 0.00 51 1016.4
20181023025932 18 91 4.8 11.3 0.00 0.00 0.00 51 1016.4
20181023025731 18 132 8.0 11.3 0.00 0.00 0.00 51 1016.4
20181023025529 18 109 3.2 11.3 0.00 0.00 0.00 51 1016.4
20181023025328 18 106 4.8 16.1 0.00 0.00 0.00 51 1016.4
20181023025126 18 106 6.4 16.1 0.00 0.00 0.00 51 1016.4
20181023024925 18 67 4.8 14.5 0.00 0.00 0.00 51 1016.4
20181023024723 18 99 6.4 14.5 0.00 0.00 0.00 51 1016.4
20181023024522 18 101 9.7 16.1 0.00 0.00 0.00 51 1016.4
20181023024320 18 90 11.3 16.1 0.00 0.00 0.00 51 1016.4
20181023024119 18 95 11.3 16.1 0.00 0.00 0.00 51 1016.4
20181023023917 18 137 8.0 14.5 0.00 0.00 0.00 51 1016.4
20181023023715 18 91 9.7 14.5 0.00 0.00 0.00 51 1016.4
20181023023514 18 133 4.8 16.1 0.00 0.00 0.00 51 1016.4
20181023023312 18 112 6.4 16.1 0.00 0.00 0.00 52 1016.4
20181023023111 18 139 4.8 16.1 0.00 0.00 0.00 52 1016.5
20181023022909 18 119 11.3 11.3 0.00 0.00 0.00 52 1016.5
20181023022707 18 142 8.0 11.3 0.00 0.00 0.00 52 1016.5
20181023022506 17 132 9.7 12.9 0.00 0.00 0.00 53 1016.5
20181023022304 18 106 6.4 12.9 0.00 0.00 0.00 53 1016.5
20181023022103 18 122 8.0 12.9 0.00 0.00 0.00 53 1016.5
20181023021901 18 118 6.4 11.3 0.00 0.00 0.00 54 1016.5
20181023021700 18 91 4.8 11.3 0.00 0.00 0.00 53 1016.5
20181023021458 18 106 8.0 12.9 0.00 0.00 0.00 53 1016.5
20181023021257 18 101 4.8 12.9 0.00 0.00 0.00 53 1016.5
20181023021055 18 57 9.7 12.9 0.00 0.00 0.00 53 1016.5
20181023020854 18 119 4.8 11.3 0.00 0.00 0.00 53 1016.5
20181023020652 18 78 9.7 11.3 0.00 0.00 0.00 53 1016.5
20181023020451 18 135 4.8 14.5 0.00 0.00 0.00 53 1016.5
20181023020249 18 70 8.0 14.5 0.00 0.00 0.00 53 1016.5
20181023020047 18 123 8.0 14.5 0.00 0.00 0.00 53 1016.5
20181023015846 18 123 4.8 14.5 0.00 0.00 0.00 54 1016.4
20181023015644 17 126 8.0 14.5 0.00 0.00 0.00 54 1016.5
20181023015442 18 127 3.2 14.5 0.00 0.00 0.00 54 1016.5
20181023015241 18 153 4.8 14.5 0.00 0.00 0.00 55 1016.5
20181023015039 18 57 4.8 14.5 0.00 0.00 0.00 55 1016.5
20181023014838 17 113 6.4 11.3 0.00 0.00 0.00 55 1016.5
20181023014636 18 125 8.0 11.3 0.00 0.00 0.00 55 1016.5
20181023014435 17 106 6.4 12.9 0.00 0.00 0.00 56 1016.5
20181023014233 18 71 6.4 12.9 0.00 0.00 0.00 56 1016.5
20181023014032 18 139 6.4 12.9 0.00 0.00 0.00 56 1016.5
20181023013830 18 91 4.8 14.5 0.00 0.00 0.00 56 1016.5
20181023013629 18 104 3.2 14.5 0.00 0.00 0.00 56 1016.5
20181023013427 18 106 11.3 16.1 0.00 0.00 0.00 56 1016.5
20181023013226 18 108 8.0 16.1 0.00 0.00 0.00 57 1016.4
20181023013024 18 122 9.7 16.1 0.00 0.00 0.00 57 1016.4
20181023012822 18 126 4.8 11.3 0.00 0.00 0.00 57 1016.4
20181023012621 18 98 4.8 11.3 0.00 0.00 0.00 58 1016.4
20181023012419 17 147 6.4 11.3 0.00 0.00 0.00 59 1016.4
20181023012218 17 77 4.8 11.3 0.00 0.00 0.00 59 1016.4
20181023012016 17 115 6.4 14.5 0.00 0.00 0.00 59 1016.4
20181023011814 17 132 4.8 14.5 0.00 0.00 0.00 60 1016.4
20181023011613 17 132 6.4 14.5 0.00 0.00 0.00 61 1016.4
20181023011411 17 147 4.8 11.3 0.00 0.00 0.00 61 1016.4
20181023011210 17 122 4.8 11.3 0.00 0.00 0.00 63 1016.3
20181023011008 17 118 8.0 12.9 0.00 0.00 0.00 63 1016.4
20181023010807 17 126 4.8 12.9 0.00 0.00 0.00 63 1016.4
20181023010605 17 94 9.7 12.9 0.00 0.00 0.00 64 1016.4
20181023010404 17 70 8.0 9.7 0.00 0.00 0.00 65 1016.5
20181023010202 17 81 8.0 9.7 0.00 0.00 0.00 68 1016.4
20181023010001 17 61 0.0 6.4 0.00 0.00 0.00 69 1016.5
20181023005759 17 310 0.0 6.4 0.00 0.00 0.00 68 1016.4
20181023005557 18 126 1.6 6.4 0.00 0.00 0.00 65 1016.5
20181023005356 18 322 0.0 9.7 0.00 0.00 0.00 63 1016.4
20181023005154 18 61 3.2 9.7 0.00 0.00 0.00 63 1016.4
20181023004953 18 68 0.0 11.3 0.00 0.00 0.00 63 1016.4
20181023004751 18 11 4.8 11.3 0.00 0.00 0.00 62 1016.4
20181023004549 18 111 3.2 11.3 0.00 0.00 0.00 62 1016.4
20181023004348 18 98 4.8 8.0 0.00 0.00 0.00 63 1016.5
20181023004146 18 99 6.4 8.0 0.00 0.00 0.00 64 1016.5
20181023003945 18 85 4.8 11.3 0.00 0.00 0.00 65 1016.5
20181023003743 18 54 3.2 11.3 0.00 0.00 0.00 64 1016.5
20181023003542 18 75 3.2 11.3 0.00 0.00 0.00 63 1016.5
20181023003340 18 63 6.4 12.9 0.00 0.00 0.00 63 1016.5
20181023003139 18 81 6.4 12.9 0.00 0.00 0.00 65 1016.4
20181023002937 17 87 6.4 8.0 0.00 0.00 0.00 67 1016.4
20181023002736 17 109 4.8 8.0 0.00 0.00 0.00 69 1016.4
20181023002534 17 75 4.8 8.0 0.00 0.00 0.00 73 1016.4
20181023002333 17 47 0.0 8.0 0.00 0.00 0.00 74 1016.4
20181023002131 17 61 0.0 8.0 0.00 0.00 0.00 77 1016.4
20181023001930 17 4 0.0 6.4 0.00 0.00 0.00 77 1016.5
20181023001728 17 305 0.0 6.4 0.00 0.00 0.00 77 1016.5
20181023001526 17 310 3.2 6.4 0.00 0.00 0.00 76 1016.5
20181023001123 18 329 3.2 3.2 0.00 0.00 0.00 72 1016.5
20181023000921 17 111 0.0 3.2 0.00 0.00 0.00 71 1016.5
20181023000720 17 299 0.0 3.2 0.00 0.00 0.00 72 1016.5
20181023000518 18 307 0.0 8.0 0.00 0.00 0.00 72 1016.5
20181023000317 18 307 0.0 8.0 0.00 0.00 0.00 73 1016.6
20181023000115 18 289 0.0 8.0 0.00 0.00 0.00 72 1016.5
20181022235914 18 323 4.8 4.8 0.00 0.00 0.00 71 1016.6
20181022235712 18 327 1.6 4.8 0.00 0.00 0.00 68 1016.6
20181022235511 18 324 1.6 8.0 0.00 0.00 0.00 67 1016.5
20181022235308 18 61 0.0 8.0 0.00 0.00 0.00 67 1016.5
20181022235107 18 130 1.6 8.0 0.00 0.00 0.00 67 1016.5
20181022234905 18 61 0.0 8.0 0.00 0.00 0.00 67 1016.5
20181022234704 17 90 3.2 8.0 0.00 0.00 0.00 70 1016.5
20181022234502 17 111 4.8 4.8 0.00 0.00 0.00 73 1016.4
20181022234300 17 45 6.4 4.8 0.00 0.00 0.00 79 1016.4
20181022234058 17 56 1.6 4.8 0.00 0.00 0.00 80 1016.4
20181022233857 17 317 0.0 8.0 0.00 0.00 0.00 81 1016.4
20181022233655 17 316 1.6 8.0 0.00 0.00 0.00 81 1016.4
20181022233454 17 319 6.4 6.4 0.00 0.00 0.00 81 1016.4
20181022233252 17 319 6.4 6.4 0.00 0.00 0.00 81 1016.5
20181022233051 17 324 4.8 6.4 0.00 0.00 0.00 80 1016.5
20181022232849 17 285 4.8 6.4 0.00 0.00 0.00 80 1016.6
20181022232648 17 331 3.2 6.4 0.00 0.00 0.00 80 1016.6
20181022232446 17 312 4.8 8.0 0.00 0.00 0.00 80 1016.5
20181022232245 17 310 4.8 8.0 0.00 0.00 0.00 80 1016.6
20181022232043 17 333 3.2 8.0 0.00 0.00 0.00 79 1016.6
20181022231842 18 284 1.6 8.0 0.00 0.00 0.00 79 1016.6
20181022231640 18 326 3.2 8.0 0.00 0.00 0.00 79 1016.6
20181022231439 17 326 4.8 3.2 0.00 0.00 0.00 78 1016.5
20181022231237 17 340 4.8 3.2 0.00 0.00 0.00 78 1016.6
20181022231035 18 347 3.2 3.2 0.00 0.00 0.00 78 1016.6
20181022230834 18 7 0.0 3.2 0.00 0.00 0.00 77 1016.6
20181022230632 18 11 0.0 3.2 0.00 0.00 0.00 77 1016.6
20181022230430 18 329 3.2 1.6 0.00 0.00 0.00 77 1016.6
20181022230229 18 333 1.6 1.6 0.00 0.00 0.00 77 1016.6
20181022230028 18 82 0.0 1.6 0.00 0.00 0.00 77 1016.6
20181022225826 18 77 0.0 4.8 0.00 0.00 0.00 77 1016.6
20181022225624 18 80 0.0 4.8 0.00 0.00 0.00 76 1016.7
20181022225423 18 80 0.0 3.2 0.00 0.00 0.00 77 1016.6
20181022225221 18 40 0.0 3.2 0.00 0.00 0.00 76 1016.7
20181022225020 18 73 1.6 4.8 0.00 0.00 0.00 76 1016.7
20181022224818 18 91 1.6 4.8 0.00 0.00 0.00 76 1016.7
20181022224617 18 36 0.0 4.8 0.00 0.00 0.00 76 1016.7
20181022224415 18 98 3.2 4.8 0.00 0.00 0.00 76 1016.7
20181022224214 18 33 0.0 4.8 0.00 0.00 0.00 76 1016.7
20181022224012 18 46 0.0 4.8 0.00 0.00 0.00 76 1016.8
20181022223810 18 61 3.2 4.8 0.00 0.00 0.00 75 1016.8
20181022223609 18 63 1.6 4.8 0.00 0.00 0.00 75 1016.9
20181022223407 18 70 3.2 4.8 0.00 0.00 0.00 75 1016.9
20181022223206 18 45 3.2 4.8 0.00 0.00 0.00 74 1016.9
20181022223004 18 56 1.6 3.2 0.00 0.00 0.00 74 1016.8
20181022222802 18 91 1.6 3.2 0.00 0.00 0.00 74 1016.8
20181022222601 18 97 1.6 3.2 0.00 0.00 0.00 73 1016.8
20181022222359 18 95 1.6 1.6 0.00 0.00 0.00 73 1016.9
20181022222158 18 66 0.0 1.6 0.00 0.00 0.00 73 1016.9
20181022221956 18 298 0.0 1.6 0.00 0.00 0.00 73 1016.9
20181022221755 18 309 1.6 1.6 0.00 0.00 0.00 73 1016.9
20181022221553 18 95 1.6 1.6 0.00 0.00 0.00 73 1016.9
20181022221352 19 109 1.6 3.2 0.00 0.00 0.00 73 1016.9
20181022221150 18 151 0.0 3.2 0.00 0.00 0.00 73 1016.9
20181022220949 18 288 0.0 4.8 0.00 0.00 0.00 73 1017.0
20181022220747 18 288 0.0 4.8 0.00 0.00 0.00 73 1016.9
20181022220545 18 284 0.0 4.8 0.00 0.00 0.00 73 1016.9
20181022220344 18 284 0.0 6.4 0.00 0.00 0.00 73 1016.8
20181022220142 18 326 4.8 6.4 0.00 0.00 0.00 72 1016.8
20181022215940 18 315 1.6 6.4 0.00 0.00 0.00 72 1016.8
20181022215739 19 300 1.6 6.4 0.00 0.00 0.00 72 1016.7
20181022215537 19 215 0.0 6.4 0.00 0.00 0.00 72 1016.7
20181022215336 18 291 0.0 4.8 0.00 0.00 0.00 72 1016.7
20181022215134 18 288 0.0 4.8 0.00 0.00 0.00 71 1016.6
20181022214933 19 98 0.0 4.8 0.00 0.00 0.00 71 1016.6
20181022214731 19 74 3.2 4.8 0.00 0.00 0.00 71 1016.6
20181022214530 19 248 1.6 4.8 0.00 0.00 0.00 71 1016.6
20181022214328 19 39 0.0 3.2 0.00 0.00 0.00 71 1016.5
20181022214127 19 171 0.0 3.2 0.00 0.00 0.00 71 1016.5
20181022213925 19 319 1.6 4.8 0.00 0.00 0.00 71 1016.5
20181022213724 19 275 1.6 4.8 0.00 0.00 0.00 71 1016.5
20181022213522 19 320 3.2 4.8 0.00 0.00 0.00 71 1016.5
20181022213320 19 54 1.6 4.8 0.00 0.00 0.00 70 1016.5
20181022213119 19 271 0.0 4.8 0.00 0.00 0.00 70 1016.5
20181022212917 19 345 1.6 6.4 0.00 0.00 0.00 70 1016.5
20181022212716 19 305 1.6 6.4 0.00 0.00 0.00 70 1016.5
20181022212514 19 306 1.6 6.4 0.00 0.00 0.00 70 1016.5
20181022212312 19 348 1.6 6.4 0.00 0.00 0.00 70 1016.5
20181022212111 19 323 3.2 6.4 0.00 0.00 0.00 70 1016.5
20181022211909 19 309 3.2 6.4 0.00 0.00 0.00 70 1016.4
20181022211708 19 285 0.0 6.4 0.00 0.00 0.00 69 1016.4
20181022211506 19 341 0.0 6.4 0.00 0.00 0.00 69 1016.4
20181022211305 19 323 4.8 6.4 0.00 0.00 0.00 69 1016.4
20181022211103 19 222 1.6 6.4 0.00 0.00 0.00 69 1016.4
20181022210902 20 56 3.2 1.6 0.00 0.00 0.00 68 1016.4
20181022210700 20 84 1.6 1.6 0.00 0.00 0.00 68 1016.4
20181022210459 20 295 0.0 1.6 0.00 0.00 0.00 68 1016.4
20181022210257 20 293 0.0 1.6 0.00 0.00 0.00 68 1016.3
20181022210055 20 54 0.0 1.6 0.00 0.00 0.00 68 1016.3
20181022205854 20 278 1.6 4.8 0.00 0.00 0.00 68 1016.3
20181022205652 20 331 0.0 4.8 0.00 0.00 0.00 68 1016.3
20181022205451 20 291 1.6 4.8 0.00 0.00 0.00 68 1016.3
20181022205249 20 262 0.0 4.8 0.00 0.00 0.00 68 1016.3
20181022205047 20 307 0.0 4.8 0.00 0.00 0.00 68 1016.3
20181022204846 20 307 0.0 6.4 0.00 0.00 0.00 68 1016.3
20181022204644 20 293 0.0 6.4 0.00 0.00 0.00 68 1016.3
20181022204443 20 217 0.0 3.2 0.00 0.00 0.00 67 1016.3
20181022204241 20 309 0.0 3.2 0.00 0.00 0.00 67 1016.3
20181022204040 20 212 0.0 3.2 0.00 0.00 0.00 67 1016.3
20181022203838 20 163 0.0 1.6 0.00 0.00 0.00 67 1016.3
20181022203637 20 142 0.0 1.6 0.00 0.00 0.00 67 1016.3
20181022203435 20 198 1.6 3.2 0.00 0.00 0.00 67 1016.2
20181022203234 20 292 0.0 3.2 0.00 0.00 0.00 67 1016.2
20181022203032 20 292 0.0 3.2 0.00 0.00 0.00 67 1016.2
20181022202831 20 330 3.2 6.4 0.00 0.00 0.00 67 1016.2
20181022202629 20 358 0.0 6.4 0.00 0.00 0.00 67 1016.2
20181022202427 20 316 0.0 4.8 0.00 0.00 0.00 66 1016.1
20181022202226 20 122 0.0 4.8 0.00 0.00 0.00 66 1016.1
20181022202024 20 246 0.0 4.8 0.00 0.00 0.00 66 1016.1
20181022201822 20 316 0.0 4.8 0.00 0.00 0.00 66 1016.1
20181022201621 20 316 1.6 4.8 0.00 0.00 0.00 65 1016.1
20181022201419 20 229 1.6 4.8 0.00 0.00 0.00 65 1016.1
20181022201218 20 320 3.2 4.8 0.00 0.00 0.00 65 1016.1
20181022201016 20 296 0.0 3.2 0.00 0.00 0.00 65 1016.1
20181022200815 20 327 3.2 3.2 0.00 0.00 0.00 65 1016.2
20181022200613 20 253 0.0 3.2 0.00 0.00 0.00 65 1016.1
20181022200412 20 19 0.0 4.8 0.00 0.00 0.00 64 1016.1
20181022200210 20 251 0.0 4.8 0.00 0.00 0.00 64 1016.1
20181022200009 20 300 0.0 3.2 0.00 0.00 0.00 64 1016.1
20181022195807 20 309 1.6 3.2 0.00 0.00 0.00 64 1016.2
20181022195606 20 70 3.2 3.2 0.00 0.00 0.00 64 1016.2
20181022195404 20 258 0.0 1.6 0.00 0.00 0.00 64 1016.2
20181022195202 20 305 0.0 1.6 0.00 0.00 0.00 64 1016.1
20181022195001 20 265 0.0 4.8 0.00 0.00 0.00 64 1016.2
20181022194759 21 194 0.0 4.8 0.00 0.00 0.00 64 1016.1
20181022194557 20 194 0.0 4.8 0.00 0.00 0.00 64 1016.1
20181022194356 21 68 0.0 4.8 0.00 0.00 0.00 64 1016.1
20181022194154 20 295 1.6 4.8 0.00 0.00 0.00 64 1016.1
20181022193953 21 306 4.8 4.8 0.00 0.00 0.00 63 1016.1
20181022193751 21 203 0.0 4.8 0.00 0.00 0.00 63 1016.2
20181022193550 21 274 0.0 4.8 0.00 0.00 0.00 63 1016.2
20181022193348 21 246 1.6 4.8 0.00 0.00 0.00 63 1016.1
20181022193147 21 292 1.6 4.8 0.00 0.00 0.00 63 1016.1
20181022192945 21 305 4.8 4.8 0.00 0.00 0.00 63 1016.1
20181022192744 21 307 0.0 4.8 0.00 0.00 0.00 63 1016.1
20181022192542 21 337 3.2 4.8 0.00 0.00 0.00 63 1016.1
20181022192341 21 194 0.0 4.8 0.00 0.00 0.00 63 1016.0
20181022192139 21 310 1.6 4.8 0.00 0.00 0.00 63 1016.0
20181022191938 21 307 0.0 4.8 0.00 0.00 0.00 63 1016.0
20181022191736 21 324 0.0 4.8 0.00 0.00 0.00 63 1016.0
20181022191534 21 240 3.2 4.8 0.00 0.00 0.00 63 1016.0
20181022191333 21 226 0.0 6.4 0.00 0.00 0.00 63 1015.9
20181022191131 21 307 0.0 6.4 0.00 0.00 0.00 63 1015.8
20181022190929 21 319 0.0 4.8 0.00 0.00 0.00 63 1015.8
20181022190728 21 340 4.8 4.8 0.00 0.00 0.00 63 1015.8
20181022190526 21 302 0.0 4.8 0.00 0.00 0.00 63 1015.7
20181022190325 21 247 1.6 6.4 0.00 0.00 0.00 63 1015.7
20181022190123 21 295 1.6 6.4 0.00 0.00 0.00 63 1015.7
20181022185922 21 322 3.2 4.8 0.00 0.00 0.00 63 1015.6
20181022185720 21 217 0.0 4.8 0.00 0.00 0.00 63 1015.6
20181022185519 21 275 0.0 6.4 0.00 0.00 0.00 63 1015.6
20181022185317 21 306 3.2 6.4 0.00 0.00 0.00 63 1015.6
20181022185116 22 279 1.6 6.4 0.00 0.00 0.00 63 1015.6
20181022184914 22 288 3.2 4.8 0.00 0.00 0.00 63 1015.6
20181022184713 22 192 0.0 4.8 0.00 0.00 0.00 63 1015.6
20181022184511 22 299 3.2 6.4 0.00 0.00 0.00 63 1015.6
20181022184309 22 312 4.8 6.4 0.00 0.00 0.00 63 1015.5
20181022184108 22 288 0.0 6.4 0.00 0.00 0.00 63 1015.6
20181022183906 22 189 0.0 4.8 0.00 0.00 0.00 62 1015.5
20181022183704 22 281 1.6 4.8 0.00 0.00 0.00 62 1015.5
20181022183503 22 254 1.6 8.0 0.00 0.00 0.00 63 1015.6
20181022183302 22 217 3.2 8.0 0.00 0.00 0.00 63 1015.5
20181022183100 22 189 3.2 8.0 0.00 0.00 0.00 63 1015.5
20181022182858 22 310 0.0 9.7 0.00 0.00 0.00 63 1015.4
20181022182657 22 310 0.0 9.7 0.00 0.00 0.00 62 1015.5
20181022182455 22 337 3.2 4.8 0.00 0.00 0.00 62 1015.4
20181022182254 22 343 0.0 4.8 0.00 0.00 0.00 61 1015.5
20181022182052 22 315 0.0 4.8 0.00 0.00 0.00 60 1015.4
20181022181851 22 299 0.0 0.0 0.00 0.00 0.00 60 1015.4
20181022181649 23 299 0.0 0.0 0.00 0.00 0.00 59 1015.4
20181022181448 23 303 0.0 1.6 0.00 0.00 0.00 59 1015.4
20181022181246 23 303 0.0 1.6 0.00 0.00 0.00 59 1015.4
20181022181044 23 303 0.0 1.6 0.00 0.00 0.00 59 1015.4
20181022180843 23 303 0.0 1.6 0.00 0.00 0.00 58 1015.4
20181022180641 23 299 1.6 1.6 0.00 0.00 0.00 58 1015.4
20181022180439 23 271 0.0 0.0 0.00 0.00 0.00 58 1015.4
20181022180238 23 194 0.0 0.0 0.00 0.00 0.00 58 1015.4
20181022180036 23 194 0.0 0.0 0.00 0.00 0.00 58 1015.5
20181022175835 23 194 0.0 0.0 0.00 0.00 0.00 57 1015.4
20181022175633 23 194 0.0 0.0 0.00 0.00 0.00 57 1015.4
20181022175432 23 194 0.0 1.6 0.00 0.00 0.00 57 1015.4
20181022175230 23 194 0.0 1.6 0.00 0.00 0.00 57 1015.4
20181022175029 23 194 0.0 1.6 0.00 0.00 0.00 57 1015.4
20181022174827 23 194 0.0 1.6 0.00 0.00 0.00 57 1015.3
20181022174626 23 300 0.0 1.6 0.00 0.00 0.00 56 1015.3
20181022174424 23 300 0.0 3.2 0.00 0.00 0.00 56 1015.3
20181022174223 23 270 0.0 3.2 0.00 0.00 0.00 56 1015.3
20181022174021 24 310 0.0 4.8 0.00 0.00 0.00 56 1015.3
20181022173819 24 132 0.0 4.8 0.00 0.00 0.00 55 1015.3
20181022173618 24 132 0.0 4.8 0.00 0.00 0.00 55 1015.3
20181022173416 24 132 0.0 9.7 0.00 0.00 0.00 55 1015.3
20181022173215 24 115 1.6 9.7 0.00 0.00 0.00 54 1015.4
20181022173013 25 109 0.0 1.6 0.00 0.00 0.00 53 1015.4
20181022172811 25 113 3.2 1.6 0.00 0.00 0.00 53 1015.4
20181022172610 25 106 0.0 1.6 0.00 0.00 0.00 53 1015.4
20181022172408 25 106 0.0 6.4 0.00 0.00 0.00 53 1015.4
20181022172207 25 106 0.0 6.4 0.00 0.00 0.00 53 1015.5
20181022172005 25 104 0.0 12.9 0.00 0.00 0.00 52 1015.5
20181022171804 25 28 0.0 12.9 0.00 0.00 0.00 52 1015.5
20181022171602 25 115 6.4 12.9 0.00 0.00 0.00 52 1015.5
20181022171401 25 105 4.8 8.0 0.00 0.00 0.00 51 1015.6
20181022171159 25 66 8.0 8.0 0.00 0.00 0.00 50 1015.6
20181022170958 25 91 3.2 6.4 0.00 0.00 0.00 48 1015.6
20181022170756 25 92 4.8 6.4 0.00 0.00 0.00 47 1015.6
20181022170555 26 127 1.6 6.4 0.00 0.00 0.00 46 1015.5
20181022170353 26 270 0.0 3.2 0.00 0.00 0.00 47 1015.5
20181022170151 26 270 0.0 3.2 0.00 0.00 0.00 47 1015.5
20181022165950 26 244 0.0 1.6 0.00 0.00 0.00 48 1015.5
20181022165748 25 243 3.2 1.6 0.00 0.00 0.00 48 1015.6
20181022165546 25 295 0.0 1.6 0.00 0.00 0.00 48 1015.6
20181022165345 25 154 0.0 4.8 0.00 0.00 0.00 48 1015.6
20181022165143 25 109 0.0 4.8 0.00 0.00 0.00 48 1015.6
20181022164942 25 101 1.6 4.8 0.00 0.00 0.00 48 1015.5
20181022164740 25 268 1.6 4.8 0.00 0.00 0.00 49 1015.6
20181022164539 25 312 0.0 4.8 0.00 0.00 0.00 48 1015.5
20181022164337 25 182 0.0 4.8 0.00 0.00 0.00 49 1015.5
20181022164136 25 282 0.0 4.8 0.00 0.00 0.00 49 1015.5
20181022163934 25 284 1.6 3.2 0.00 0.00 0.00 49 1015.5
20181022163733 25 327 1.6 3.2 0.00 0.00 0.00 49 1015.4
20181022163531 25 206 0.0 3.2 0.00 0.00 0.00 50 1015.4
20181022163330 25 267 1.6 4.8 0.00 0.00 0.00 50 1015.5
20181022163128 24 160 0.0 4.8 0.00 0.00 0.00 50 1015.5
20181022162926 24 334 0.0 6.4 0.00 0.00 0.00 51 1015.6
20181022162725 24 127 0.0 6.4 0.00 0.00 0.00 51 1015.6
20181022162523 24 345 0.0 6.4 0.00 0.00 0.00 51 1015.6
20181022162321 24 262 3.2 6.4 0.00 0.00 0.00 51 1015.6
20181022162120 24 345 3.2 6.4 0.00 0.00 0.00 51 1015.5
20181022161918 24 331 1.6 8.0 0.00 0.00 0.00 51 1015.5
20181022161717 24 255 1.6 8.0 0.00 0.00 0.00 50 1015.5
20181022161515 24 324 1.6 11.3 0.00 0.00 0.00 50 1015.5
20181022161314 25 310 4.8 11.3 0.00 0.00 0.00 49 1015.5
20181022161112 24 289 4.8 11.3 0.00 0.00 0.00 49 1015.5
20181022160911 25 205 0.0 9.7 0.00 0.00 0.00 48 1015.5
20181022160508 25 331 6.4 9.7 0.00 0.00 0.00 47 1015.6
20181022160306 25 351 0.0 9.7 0.00 0.00 0.00 46 1015.6
20181022160105 25 334 0.0 9.7 0.00 0.00 0.00 46 1015.5
20181022155903 25 322 4.8 14.5 0.00 0.00 0.00 46 1015.5
20181022155702 25 196 0.0 14.5 0.00 0.00 0.00 45 1015.5
20181022155500 25 303 0.0 9.7 0.00 0.00 0.00 46 1015.4
20181022155258 25 302 8.0 9.7 0.00 0.00 0.00 45 1015.3
20181022155056 25 222 4.8 9.7 0.00 0.00 0.00 46 1015.4
20181022154855 25 309 4.8 12.9 0.00 0.00 0.00 45 1015.3
20181022154653 25 150 1.6 12.9 0.00 0.00 0.00 46 1015.3
20181022154452 25 59 0.0 16.1 0.00 0.00 0.00 45 1015.3
20181022154250 26 4 4.8 16.1 0.00 0.00 0.00 45 1015.3
20181022154049 26 323 4.8 16.1 0.00 0.00 0.00 42 1015.4
20181022153847 27 306 8.0 6.4 0.00 0.00 0.00 39 1015.5
20181022153646 27 319 6.4 6.4 0.00 0.00 0.00 35 1015.5
20181022153444 27 305 0.0 8.0 0.00 0.00 0.00 34 1015.5
20181022153243 27 277 4.8 8.0 0.00 0.00 0.00 34 1015.5
20181022153041 27 307 3.2 8.0 0.00 0.00 0.00 34 1015.5
20181022152840 27 316 1.6 8.0 0.00 0.00 0.00 35 1015.5
20181022152638 27 289 1.6 8.0 0.00 0.00 0.00 36 1015.5
20181022152437 27 222 0.0 8.0 0.00 0.00 0.00 36 1015.5
20181022152235 26 315 4.8 8.0 0.00 0.00 0.00 36 1015.5
20181022152033 27 307 6.4 8.0 0.00 0.00 0.00 37 1015.5
20181022151832 26 302 1.6 9.7 0.00 0.00 0.00 35 1015.5
20181022151631 26 312 4.8 9.7 0.00 0.00 0.00 35 1015.5
20181022151428 26 306 8.0 3.2 0.00 0.00 0.00 36 1015.5
20181022151227 26 319 3.2 3.2 0.00 0.00 0.00 37 1015.5
20181022151025 26 262 4.8 3.2 0.00 0.00 0.00 38 1015.5
20181022150824 26 296 0.0 4.8 0.00 0.00 0.00 39 1015.5
20181022150622 26 302 0.0 4.8 0.00 0.00 0.00 38 1015.5
20181022150421 26 302 4.8 4.8 0.00 0.00 0.00 39 1015.5
20181022150219 26 260 0.0 4.8 0.00 0.00 0.00 39 1015.5
20181022150018 26 260 0.0 4.8 0.00 0.00 0.00 39 1015.5
20181022145816 26 299 0.0 4.8 0.00 0.00 0.00 39 1015.5
20181022145615 25 334 0.0 4.8 0.00 0.00 0.00 40 1015.6
20181022145413 25 320 0.0 6.4 0.00 0.00 0.00 40 1015.6
20181022145212 25 320 1.6 6.4 0.00 0.00 0.00 40 1015.6
20181022145010 25 322 0.0 11.3 0.00 0.00 0.00 39 1015.6
20181022144809 25 324 0.0 11.3 0.00 0.00 0.00 39 1015.6
20181022144405 26 310 8.0 6.4 0.00 0.00 0.00 39 1015.5
20181022144002 26 352 0.0 8.0 0.00 0.00 0.00 38 1015.6
20181022143800 26 319 3.2 8.0 0.00 0.00 0.00 38 1015.6
20181022143559 26 319 4.8 8.0 0.00 0.00 0.00 37 1015.6
20181022143357 26 299 3.2 8.0 0.00 0.00 0.00 36 1015.6
20181022143156 26 319 4.8 8.0 0.00 0.00 0.00 36 1015.6
20181022142954 26 16 0.0 4.8 0.00 0.00 0.00 35 1015.6
20181022142753 27 345 1.6 4.8 0.00 0.00 0.00 34 1015.6
20181022142551 27 302 1.6 4.8 0.00 0.00 0.00 33 1015.7
20181022142350 27 316 1.6 6.4 0.00 0.00 0.00 33 1015.7
20181022142148 27 322 3.2 6.4 0.00 0.00 0.00 33 1015.7
20181022141947 27 331 0.0 9.7 0.00 0.00 0.00 35 1015.7
20181022141745 27 298 3.2 9.7 0.00 0.00 0.00 35 1015.7
20181022141543 26 327 4.8 9.7 0.00 0.00 0.00 33 1015.8
20181022141342 26 351 4.8 11.3 0.00 0.00 0.00 35 1015.7
20181022141140 26 12 8.0 11.3 0.00 0.00 0.00 34 1015.7
20181022140938 26 18 6.4 9.7 0.00 0.00 0.00 35 1015.8
20181022140737 26 315 0.0 9.7 0.00 0.00 0.00 37 1015.8
20181022140535 26 320 4.8 9.7 0.00 0.00 0.00 38 1015.8
20181022140334 25 317 9.7 9.7 0.00 0.00 0.00 40 1015.8
20181022140132 25 324 0.0 9.7 0.00 0.00 0.00 41 1015.8
20181022135931 25 313 6.4 14.5 0.00 0.00 0.00 41 1015.9
20181022135729 25 326 3.2 14.5 0.00 0.00 0.00 40 1015.9
20181022135528 25 312 6.4 14.5 0.00 0.00 0.00 40 1015.9
20181022135326 26 291 12.9 12.9 0.00 0.00 0.00 38 1015.9
20181022135125 26 323 1.6 12.9 0.00 0.00 0.00 38 1015.9
20181022134923 26 312 8.0 11.3 0.00 0.00 0.00 38 1015.9
20181022134722 26 310 3.2 11.3 0.00 0.00 0.00 39 1016.0
20181022134520 26 336 4.8 8.0 0.00 0.00 0.00 39 1016.0
20181022134319 26 29 1.6 8.0 0.00 0.00 0.00 39 1016.1
20181022134117 25 358 3.2 8.0 0.00 0.00 0.00 41 1016.1
20181022133915 25 329 3.2 8.0 0.00 0.00 0.00 40 1016.1
20181022133714 26 323 3.2 8.0 0.00 0.00 0.00 39 1016.2
20181022133512 26 323 3.2 8.0 0.00 0.00 0.00 40 1016.2
20181022133310 26 331 0.0 8.0 0.00 0.00 0.00 40 1016.2
20181022133109 26 354 0.0 8.0 0.00 0.00 0.00 41 1016.3
20181022132907 25 313 0.0 9.7 0.00 0.00 0.00 43 1016.3
20181022132706 25 327 3.2 9.7 0.00 0.00 0.00 43 1016.3
20181022132504 25 275 1.6 9.7 0.00 0.00 0.00 45 1016.3
20181022132303 25 330 1.6 9.7 0.00 0.00 0.00 45 1016.3
20181022132101 25 354 0.0 9.7 0.00 0.00 0.00 44 1016.3
20181022131900 25 23 3.2 9.7 0.00 0.00 0.00 43 1016.4
20181022131658 25 336 0.0 9.7 0.00 0.00 0.00 43 1016.4
20181022131457 25 92 1.6 11.3 0.00 0.00 0.00 43 1016.3
20181022131255 25 2 3.2 11.3 0.00 0.00 0.00 43 1016.3
20181022131054 25 327 4.8 11.3 0.00 0.00 0.00 42 1016.3
20181022130852 25 352 4.8 8.0 0.00 0.00 0.00 42 1016.4
20181022130650 25 347 0.0 8.0 0.00 0.00 0.00 42 1016.4
20181022130449 25 307 3.2 12.9 0.00 0.00 0.00 43 1016.4
20181022130247 25 293 4.8 12.9 0.00 0.00 0.00 43 1016.4
20181022130045 25 322 4.8 12.9 0.00 0.00 0.00 41 1016.5
20181022125844 25 324 8.0 9.7 0.00 0.00 0.00 42 1016.4
20181022125642 25 298 1.6 9.7 0.00 0.00 0.00 42 1016.4
20181022125441 25 316 3.2 8.0 0.00 0.00 0.00 42 1016.4
20181022125239 25 312 4.8 8.0 0.00 0.00 0.00 43 1016.4
20181022125038 25 8 6.4 8.0 0.00 0.00 0.00 44 1016.4
20181022124836 25 1 1.6 11.3 0.00 0.00 0.00 45 1016.4
20181022124635 25 322 4.8 11.3 0.00 0.00 0.00 44 1016.5
20181022124433 26 327 3.2 11.3 0.00 0.00 0.00 44 1016.5
20181022124232 25 292 6.4 11.3 0.00 0.00 0.00 44 1016.5
20181022124030 25 306 4.8 11.3 0.00 0.00 0.00 44 1016.5
20181022123829 25 0 1.6 11.3 0.00 0.00 0.00 45 1016.4
20181022123627 25 313 9.7 11.3 0.00 0.00 0.00 45 1016.5
20181022123425 25 319 4.8 14.5 0.00 0.00 0.00 45 1016.6
20181022123224 24 316 4.8 14.5 0.00 0.00 0.00 46 1016.6
20181022123022 25 275 1.6 14.5 0.00 0.00 0.00 46 1016.7
20181022122821 25 305 9.7 14.5 0.00 0.00 0.00 46 1016.7
20181022122619 25 307 6.4 14.5 0.00 0.00 0.00 45 1016.8
20181022122417 25 313 11.3 12.9 0.00 0.00 0.00 45 1016.8
20181022122216 25 330 0.0 12.9 0.00 0.00 0.00 45 1016.8
20181022122014 25 315 6.4 12.9 0.00 0.00 0.00 45 1016.8
20181022121813 25 302 6.4 12.9 0.00 0.00 0.00 44 1016.9
20181022121611 25 310 8.0 12.9 0.00 0.00 0.00 44 1016.9
20181022121410 25 330 0.0 9.7 0.00 0.00 0.00 44 1016.9
20181022121208 25 310 8.0 9.7 0.00 0.00 0.00 45 1016.9
20181022121007 25 322 6.4 11.3 0.00 0.00 0.00 46 1017.0
20181022120805 25 324 0.0 11.3 0.00 0.00 0.00 48 1017.0
20181022120604 24 334 3.2 11.3 0.00 0.00 0.00 48 1017.0
20181022120402 24 344 11.3 11.3 0.00 0.00 0.00 47 1017.0
20181022120201 24 341 6.4 11.3 0.00 0.00 0.00 48 1017.0
20181022115959 24 317 8.0 8.0 0.00 0.00 0.00 48 1017.2
20181022115757 24 18 1.6 8.0 0.00 0.00 0.00 48 1017.2
20181022115556 23 277 0.0 8.0 0.00 0.00 0.00 48 1017.2
20181022115354 24 320 6.4 8.0 0.00 0.00 0.00 49 1017.2
20181022115152 23 337 3.2 8.0 0.00 0.00 0.00 48 1017.2
20181022114951 23 327 0.0 8.0 0.00 0.00 0.00 50 1017.3
20181022114749 23 319 1.6 8.0 0.00 0.00 0.00 51 1017.3
20181022114548 23 70 3.2 8.0 0.00 0.00 0.00 52 1017.3
20181022114346 23 291 0.0 8.0 0.00 0.00 0.00 52 1017.3
20181022114145 23 347 3.2 8.0 0.00 0.00 0.00 51 1017.3
20181022113943 23 322 4.8 8.0 0.00 0.00 0.00 53 1017.3
20181022113742 23 1 4.8 8.0 0.00 0.00 0.00 54 1017.3
20181022113540 23 299 4.8 8.0 0.00 0.00 0.00 55 1017.4
20181022113339 23 309 3.2 6.4 0.00 0.00 0.00 55 1017.5
20181022113137 23 22 4.8 6.4 0.00 0.00 0.00 57 1017.5
20181022112936 22 323 0.0 9.7 0.00 0.00 0.00 58 1017.5
20181022112734 22 303 1.6 9.7 0.00 0.00 0.00 59 1017.5
20181022112532 22 291 0.0 9.7 0.00 0.00 0.00 61 1017.5
20181022112331 22 330 3.2 9.7 0.00 0.00 0.00 62 1017.5
20181022112129 22 322 6.4 9.7 0.00 0.00 0.00 61 1017.6
20181022111927 22 322 0.0 9.7 0.00 0.00 0.00 63 1017.6
20181022111726 22 331 3.2 9.7 0.00 0.00 0.00 63 1017.6
20181022111526 22 326 1.6 9.7 0.00 0.00 0.00 64 1017.6
20181022111323 22 306 3.2 8.0 0.00 0.00 0.00 65 1017.6
20181022111121 22 313 1.6 8.0 0.00 0.00 0.00 65 1017.7
20181022110920 21 320 0.0 11.3 0.00 0.00 0.00 66 1017.7
20181022110718 21 350 4.8 11.3 0.00 0.00 0.00 65 1017.7
20181022110517 22 316 4.8 8.0 0.00 0.00 0.00 65 1017.7
20181022110315 22 336 4.8 8.0 0.00 0.00 0.00 64 1017.6
20181022110115 22 289 3.2 8.0 0.00 0.00 0.00 64 1017.7
20181022105912 22 312 3.2 4.8 0.00 0.00 0.00 64 1017.7
20181022105711 22 310 1.6 4.8 0.00 0.00 0.00 65 1017.7
20181022105509 22 329 1.6 4.8 0.00 0.00 0.00 64 1017.7
20181022105308 22 347 0.0 4.8 0.00 0.00 0.00 64 1017.7
20181022105106 22 305 3.2 4.8 0.00 0.00 0.00 64 1017.7
20181022104905 22 291 0.0 3.2 0.00 0.00 0.00 64 1017.7
20181022104703 22 323 0.0 3.2 0.00 0.00 0.00 64 1017.8
20181022104501 22 323 0.0 3.2 0.00 0.00 0.00 65 1017.8
20181022104259 22 323 0.0 3.2 0.00 0.00 0.00 65 1017.8
20181022104058 22 323 0.0 3.2 0.00 0.00 0.00 65 1017.8
20181022103858 21 315 0.0 1.6 0.00 0.00 0.00 66 1017.8
20181022103658 21 317 0.0 1.6 0.00 0.00 0.00 67 1017.8
20181022103507 21 319 0.0 4.8 0.00 0.00 0.00 68 1017.8
20181022103322 21 319 0.0 4.8 0.00 0.00 0.00 68 1017.8
20181022101841 20 285 1.6 4.8 0.00 0.00 0.00 72 1018.0
20181022101639 20 282 0.0 4.8 0.00 0.00 0.00 73 1018.0
20181022101438 20 282 0.0 3.2 0.00 0.00 0.00 75 1018.0
20181022101237 19 270 0.0 3.2 0.00 0.00 0.00 75 1018.0
20181022101034 20 307 1.6 3.2 0.00 0.00 0.00 75 1018.0
20181022100833 19 270 0.0 4.8 0.00 0.00 0.00 77 1018.0
20181022100632 19 270 0.0 4.8 0.00 0.00 0.00 78 1018.0
20181022100430 18 338 0.0 4.8 0.00 0.00 0.00 78 1018.1
20181022100228 18 23 1.6 4.8 0.00 0.00 0.00 79 1018.1
20181022100027 18 19 0.0 4.8 0.00 0.00 0.00 79 1018.1